• In Italy
  • List of Countries
  • For 7 days
  • Water Temperature
  • Satellite Maps
  • Weather Map
  • Weather Widgets
  • user-avatar
    Login

    Hourly Weather Delhi

    Today, 20 November, Monday

    Time Temperature Precipitation Wind Pressure Humidity
    00:00 +19°C° 0 mm 2 mps 743 mmHg 23%
    01:00 +19°C° 0 mm 2 mps 742 mmHg 24%
    02:00 +18°C° 0 mm 2 mps 742 mmHg 24%
    03:00 +18°C° 0 mm 2 mps 742 mmHg 24%
    04:00 +17°C° 0 mm 2 mps 742 mmHg 25%
    05:00 +17°C° 0 mm 2 mps 742 mmHg 26%
    06:00 +17°C° 0 mm 2 mps 743 mmHg 26%
    07:00 +18°C° 0 mm 2 mps 743 mmHg 26%
    08:00 +19°C° 0 mm 3 mps 744 mmHg 26%
    09:00 +20°C° 0 mm 3 mps 744 mmHg 23%
    10:00 +22°C° 0 mm 3 mps 744 mmHg 20%
    11:00 +25°C° 0 mm 3 mps 744 mmHg 18%
    12:00 +26°C° 0 mm 3 mps 743 mmHg 16%
    13:00 +26°C° 0 mm 3 mps 743 mmHg 15%
    14:00 +27°C° 0 mm 3 mps 742 mmHg 14%
    15:00 +26°C° 0 mm 3 mps 742 mmHg 16%
    16:00 +25°C° 0 mm 3 mps 741 mmHg 17%
    17:00 +24°C° 0 mm 2 mps 741 mmHg 18%
    18:00 +23°C° 0 mm 2 mps 741 mmHg 19%
    19:00 +21°C° 0 mm 3 mps 741 mmHg 20%
    20:00 +20°C° 0 mm 3 mps 742 mmHg 21%
    21:00 +20°C° 0 mm 3 mps 742 mmHg 21%
    22:00 +19°C° 0 mm 3 mps 741 mmHg 22%
    23:00 +19°C° 0 mm 3 mps 741 mmHg 22%

    Tomorrow, 21 November, Tuesday

    Time Temperature Precipitation Wind Pressure Humidity
    00:00 +18°C° 0 mm 2 mps 741 mmHg 23%
    01:00 +18°C° 0 mm 2 mps 741 mmHg 23%
    02:00 +17°C° 0 mm 2 mps 741 mmHg 23%
    03:00 +17°C° 0 mm 2 mps 740 mmHg 24%
    04:00 +17°C° 0 mm 3 mps 740 mmHg 24%
    05:00 +16°C° 0 mm 3 mps 740 mmHg 24%
    06:00 +17°C° 0 mm 3 mps 741 mmHg 24%
    07:00 +17°C° 0 mm 3 mps 741 mmHg 24%
    08:00 +18°C° 0 mm 3 mps 742 mmHg 24%
    09:00 +20°C° 0 mm 3 mps 742 mmHg 22%
    10:00 +22°C° 0 mm 3 mps 742 mmHg 20%
    11:00 +25°C° 0 mm 3 mps 742 mmHg 17%
    12:00 +26°C° 0 mm 3 mps 741 mmHg 16%
    13:00 +27°C° 0 mm 3 mps 741 mmHg 15%
    14:00 +27°C° 0 mm 3 mps 740 mmHg 14%
    15:00 +26°C° 0 mm 3 mps 740 mmHg 15%
    16:00 +25°C° 0 mm 3 mps 740 mmHg 17%
    17:00 +24°C° 0 mm 2 mps 739 mmHg 18%
    18:00 +23°C° 0 mm 2 mps 740 mmHg 19%
    19:00 +21°C° 0 mm 2 mps 740 mmHg 19%
    20:00 +21°C° 0 mm 2 mps 741 mmHg 20%
    21:00 +20°C° 0 mm 2 mps 741 mmHg 20%
    22:00 +20°C° 0 mm 2 mps 741 mmHg 20%
    23:00 +19°C° 0 mm 2 mps 740 mmHg 21%

    Day after tomorrow, 22 November, Wednesday

    Time Temperature Precipitation Wind Pressure Humidity
    00:00 +19°C° 0 mm 2 mps 740 mmHg 21%
    01:00 +18°C° 0 mm 2 mps 740 mmHg 21%
    02:00 +18°C° 0 mm 2 mps 740 mmHg 21%
    03:00 +17°C° 0 mm 2 mps 740 mmHg 22%
    04:00 +17°C° 0 mm 2 mps 740 mmHg 23%
    05:00 +16°C° 0 mm 2 mps 739 mmHg 23%
    06:00 +17°C° 0 mm 2 mps 740 mmHg 23%
    07:00 +18°C° 0 mm 2 mps 741 mmHg 23%
    08:00 +18°C° 0 mm 2 mps 741 mmHg 23%
    09:00 +20°C° 0 mm 2 mps 741 mmHg 21%
    10:00 +22°C° 0 mm 3 mps 741 mmHg 19%
    11:00 +26°C° 0 mm 3 mps 741 mmHg 16%
    12:00 +26°C° 0 mm 3 mps 741 mmHg 15%
    13:00 +27°C° 0 mm 3 mps 740 mmHg 14%
    14:00 +28°C° 0 mm 3 mps 740 mmHg 13%
    15:00 +27°C° 0 mm 3 mps 739 mmHg 14%
    16:00 +25°C° 0 mm 3 mps 739 mmHg 15%
    17:00 +24°C° 0 mm 2 mps 739 mmHg 16%
    18:00 +23°C° 0 mm 2 mps 739 mmHg 16%
    19:00 +21°C° 0 mm 2 mps 740 mmHg 16%
    20:00 +21°C° 0 mm 2 mps 740 mmHg 16%
    21:00 +20°C° 0 mm 2 mps 740 mmHg 16%
    22:00 +19°C° 0 mm 2 mps 740 mmHg 16%
    23:00 +19°C° 0 mm 3 mps 740 mmHg 16%

    23 November, Thursday

    Time Temperature Precipitation Wind Pressure Humidity
    00:00 +18°C° 0 mm 3 mps 740 mmHg 16%
    01:00 +18°C° 0 mm 2 mps 739 mmHg 16%
    02:00 +17°C° 0 mm 2 mps 739 mmHg 16%
    03:00 +17°C° 0 mm 2 mps 739 mmHg 16%
    04:00 +17°C° 0 mm 2 mps 739 mmHg 16%
    05:00 +16°C° 0 mm 2 mps 739 mmHg 17%
    06:00 +17°C° 0 mm 2 mps 739 mmHg 17%
    07:00 +17°C° 0 mm 2 mps 740 mmHg 17%
    08:00 +18°C° 0 mm 2 mps 740 mmHg 17%
    09:00 +20°C° 0 mm 2 mps 740 mmHg 15%
    10:00 +22°C° 0 mm 3 mps 741 mmHg 13%
    11:00 +25°C° 0 mm 3 mps 741 mmHg 11%
    12:00 +26°C° 0 mm 3 mps 740 mmHg 10%
    13:00 +27°C° 0 mm 3 mps 740 mmHg 9%
    14:00 +28°C° 0 mm 3 mps 739 mmHg 9%
    15:00 +27°C° 0 mm 3 mps 739 mmHg 10%
    16:00 +25°C° 0 mm 2 mps 739 mmHg 11%
    17:00 +24°C° 0 mm 2 mps 739 mmHg 12%
    18:00 +23°C° 0 mm 2 mps 739 mmHg 12%
    19:00 +22°C° 0 mm 1 mps 740 mmHg 12%
    20:00 +21°C° 0 mm 1 mps 740 mmHg 13%
    21:00 +21°C° 0 mm 1 mps 740 mmHg 13%
    22:00 +20°C° 0 mm 1 mps 740 mmHg 13%
    23:00 +20°C° 0 mm 1 mps 740 mmHg 13%

    24 November, Friday

    Time Temperature Precipitation Wind Pressure Humidity
    00:00 +19°C° 0 mm 1 mps 740 mmHg 13%
    01:00 +19°C° 0 mm 1 mps 740 mmHg 13%
    02:00 +19°C° 0 mm 1 mps 740 mmHg 14%
    03:00 +18°C° 0 mm 1 mps 740 mmHg 14%
    04:00 +18°C° 0 mm 1 mps 740 mmHg 14%
    05:00 +16°C° 0 mm 1 mps 740 mmHg 15%
    06:00 +18°C° 0 mm 1 mps 741 mmHg 15%
    07:00 +19°C° 0 mm 1 mps 741 mmHg 15%
    08:00 +19°C° 0 mm 1 mps 742 mmHg 16%
    09:00 +21°C° 0 mm 1 mps 742 mmHg 14%
    10:00 +23°C° 0 mm 2 mps 742 mmHg 12%
    11:00 +25°C° 0 mm 2 mps 742 mmHg 10%
    12:00 +26°C° 0 mm 2 mps 742 mmHg 9%
    13:00 +27°C° 0 mm 2 mps 741 mmHg 8%
    14:00 +28°C° 0 mm 3 mps 740 mmHg 8%
    15:00 +27°C° 0 mm 2 mps 740 mmHg 8%
    16:00 +25°C° 0 mm 2 mps 740 mmHg 9%
    17:00 +24°C° 0 mm 1 mps 740 mmHg 10%
    18:00 +23°C° 0 mm 1 mps 740 mmHg 11%
    19:00 +23°C° 0 mm 1 mps 741 mmHg 11%
    20:00 +22°C° 0 mm 1 mps 741 mmHg 11%
    21:00 +21°C° 0 mm 1 mps 741 mmHg 11%
    22:00 +21°C° 0 mm 1 mps 741 mmHg 11%
    23:00 +20°C° 0 mm 1 mps 741 mmHg 12%

    25 November, Saturday

    Time Temperature Precipitation Wind Pressure Humidity
    00:00 +20°C° 0 mm 1 mps 741 mmHg 12%
    01:00 +18°C° 0 mm 2 mps 740 mmHg 12%
    02:00 +18°C° 0 mm 2 mps 740 mmHg 12%
    03:00 +18°C° 0 mm 1 mps 740 mmHg 13%
    04:00 +18°C° 0 mm 1 mps 740 mmHg 13%
    05:00 +18°C° 0 mm 1 mps 740 mmHg 13%
    06:00 +18°C° 0 mm 1 mps 741 mmHg 14%
    07:00 +19°C° 0 mm 1 mps 741 mmHg 14%
    08:00 +19°C° 0 mm 1 mps 742 mmHg 15%
    09:00 +22°C° 0 mm 1 mps 742 mmHg 13%
    10:00 +24°C° 0 mm 2 mps 742 mmHg 11%
    11:00 +26°C° 0 mm 2 mps 742 mmHg 10%
    12:00 +27°C° 0 mm 2 mps 742 mmHg 9%
    13:00 +28°C° 0 mm 2 mps 741 mmHg 8%
    14:00 +29°C° 0 mm 2 mps 740 mmHg 8%
    15:00 +27°C° 0 mm 2 mps 740 mmHg 9%
    16:00 +26°C° 0 mm 1 mps 740 mmHg 10%
    17:00 +24°C° 0 mm 1 mps 740 mmHg 11%
    18:00 +22°C° 0 mm 0 mps 741 mmHg 11%
    19:00 +21°C° 0 mm 0 mps 741 mmHg 11%
    20:00 +20°C° 0 mm 0 mps 742 mmHg 12%
    21:00 +20°C° 0 mm 0 mps 742 mmHg 12%
    22:00 +19°C° 0 mm 0 mps 742 mmHg 13%
    23:00 +19°C° 0 mm 0 mps 742 mmHg 14%
    Show more